Temp
10 10 10 10 10 10 11 11 11 11 11 10 10 10 10 10 10 10 10 10 10 11 11 11 11 11 11 11 11 11 11 11 11 11 11 11 11 11 11 11 11 11 11 11 11 10 10 10 10 10 10 10 10 10 10 10 10 10 10 10 10 10 10 10 10 10 10 10 10
11 11 11 11 11 11 11 11 11 11 11 10 10 10 10 10 10 10 10 10 10 10 11 11 11 11 11 11 11 11 11 11 11 11 11 11 11 11 11 11 11 11 11 10 10 10 10 10 10 10 10 10 10 10 10 10 10 10 10 10 10 10 10 10 10 10 10 10 10
11 11 11 11 11 11 11 11 11 11 11 10 10 10 10 10 10 10 10 10 10 10 11 11 11 11 11 11 11 11 11 11 11 11 11 11 11 11 11 11 11 11 11 10 10 10 10 10 10 10 10 10 10 10 10 10 10 10 10 10 10 10 10 9 9 9 9 9 9
11 11 11 11 11 12 11 11 10 10 10 10 10 10 10 10 10 10 10 10 10 10 11 11 11 11 11 11 11 11 11 11 11 11 11 11 11 11 11 11 11 11 11 10 10 10 10 10 10 10 10 10 10 10 10 9 9 9 9 9 9 9 9 9 9 9 9 9 10
11 11 11 11 11 11 11 10 10 10 10 10 10 10 10 10 10 10 10 10 10 10 10 10 10 10 10 10 10 10 10 10 11 11 10 10 10 10 10 10 10 9 9 9 9 9 9 9 9 9 9 9 9 9 8 8 8 8 7 7 7 8 8 8 9 9 10 10 10
11 11 11 11 11 10 10 10 10 10 10 10 10 10 9 9 10 10 10 10 10 10 9 9 9 9 9 9 9 9 9 10 10 10 10 10 9 9 9 8 8 8 7 7 7 7 7 7 7 8 8 8 7 7 7 7 7 6 6 7 7 7 8 8 9 10 10 10 10
11 11 11 11 10 10 10 10 10 9 10 10 10 9 9 9 9 10 9 9 9 9 9 8 8 8 8 8 8 9 9 9 9 9 9 9 9 9 9 8 8 7 7 7 6 6 6 6 7 7 7 7 6 6 6 6 6 6 6 7 7 8 8 9 9 10 10 10 10
10 10 10 10 10 10 9 9 9 9 9 9 9 9 9 9 9 9 9 9 8 8 8 8 8 8 8 8 8 8 9 9 9 9 9 9 9 9 9 9 8 8 7 7 6 6 6 6 6 6 6 6 6 6 6 6 6 6 6 7 7 8 9 9 9 9 9 9 9
10 9 9 9 9 9 9 9 9 9 9 9 9 8 8 8 8 8 8 8 8 8 8 8 8 8 8 8 8 8 8 9 9 9 9 9 9 8 8 8 8 8 7 7 6 6 5 5 5 5 5 5 5 5 5 6 6 6 7 7 8 8 9 9 9 9 9 9 9
9 9 9 9 9 9 9 8 8 8 8 8 8 8 8 8 8 8 8 8 8 8 8 8 8 8 8 8 8 8 8 8 8 9 8 8 8 8 8 8 7 7 7 6 6 6 5 5 5 5 5 5 5 5 6 6 6 6 7 8 8 9 9 9 9 9 9 9 9
9 8 8 8 8 8 8 7 7 7 7 7 7 7 7 7 7 7 7 7 7 8 8 8 7 7 7 8 8 8 8 8 8 8 8 8 8 8 8 8 7 7 7 6 6 6 6 6 6 6 6 5 6 6 6 6 6 7 8 8 9 9 9 9 9 9 9 9 9
8 8 8 7 7 7 7 7 7 7 7 7 7 7 7 7 7 7 7 7 7 7 7 7 7 7 7 7 7 7 7 8 8 8 8 8 8 8 8 8 8 7 7 7 6 6 6 5 5 5 5 6 6 6 6 7 7 8 8 9 9 9 9 9 9 9 9 9 9
7 7 7 7 7 7 7 7 7 7 7 7 7 7 7 7 7 7 7 7 7 7 7 7 7 7 7 8 8 8 8 8 8 8 8 8 8 8 8 8 8 7 7 7 6 6 5 5 5 5 5 6 7 7 8 8 9 9 9 9 9 9 9 9 9 9 9 9 9
7 7 7 7 7 6 6 6 6 6 6 6 7 7 7 7 7 7 7 7 7 8 8 8 8 8 8 8 8 8 8 8 8 9 9 9 8 8 8 8 8 7 7 6 5 5 5 5 6 6 7 8 8 9 9 9 9 9 9 9 9 9 9 9 9 9 9 9 8
6 6 6 6 6 6 6 6 6 6 6 7 7 7 7 7 7 7 7 7 7 7 7 7 7 7 8 8 8 8 8 8 8 8 8 8 8 8 8 8 7 7 6 6 6 6 6 7 8 8 8 9 9 9 9 9 9 9 9 9 9 9 8 8 8 8 8 8 8
6 5 5 5 5 5 6 6 6 6 6 7 7 7 7 7 7 7 7 7 7 7 7 7 7 7 7 8 8 8 8 8 8 8 8 8 8 8 8 8 8 7 7 7 7 8 8 8 8 8 8 8 8 8 8 8 8 8 8 8 8 8 8 8 8 8 7 7 7
5 5 5 5 5 5 6 6 6 6 6 6 6 6 6 6 7 7 7 7 7 7 7 7 7 8 8 8 8 8 8 8 8 8 8 8 8 8 8 8 8 8 8 8 8 8 8 8 8 8 8 8 8 8 8 8 8 8 8 8 7 7 7 7 7 7 7 7 6
5 5 5 5 5 5 6 6 6 6 6 6 6 7 7 7 7 7 8 8 8 8 8 8 8 8 8 8 8 8 8 8 8 8 8 8 8 8 8 8 8 8 8 8 8 8 8 8 8 8 8 8 8 7 7 7 7 7 7 7 7 7 7 6 6 6 6 6 6
5 5 5 5 5 5 6 6 6 6 7 7 7 7 8 8 8 8 8 8 8 8 8 8 8 8 8 8 8 8 8 8 8 8 8 8 8 8 8 8 8 8 8 8 7 7 7 7 7 7 7 7 7 7 7 7 7 7 7 6 6 6 6 6 6 6 6 5 5
5 5 5 5 6 6 6 7 7 7 7 8 8 8 8 8 8 8 8 8 8 8 8 8 8 8 8 8 8 8 8 8 8 8 8 8 7 7 7 7 7 7 7 7 7 7 7 7 7 7 7 7 7 7 6 6 6 6 6 6 6 6 6 5 5 5 5 5 5
5 6 6 6 7 7 7 7 7 7 7 7 7 7 8 8 8 8 8 8 8 8 8 8 8 8 8 8 8 8 8 8 7 7 7 7 7 7 7 7 7 7 7 7 7 7 7 6 6 6 6 6 6 6 6 6 6 6 6 5 5 5 5 5 5 5 5 5 4
6 6 7 7 7 7 7 7 7 7 7 7 7 7 8 8 8 8 8 8 8 8 8 8 8 8 7 7 7 7 7 7 7 7 7 7 7 7 7 6 6 6 6 6 6 6 6 6 6 6 6 6 6 6 6 5 5 5 5 5 5 5 5 5 4 4 4 4 4
7 7 7 7 7 7 7 7 7 7 7 7 7 7 7 7 7 7 7 7 7 7 7 7 7 7 7 7 7 7 7 7 7 6 6 6 6 6 6 6 6 6 6 6 6 6 6 6 5 5 5 5 5 5 5 5 5 5 5 4 4 4 4 4 4 4 4 4 3
7 7 7 7 7 7 7 7 7 7 7 7 7 7 7 7 7 7 7 7 7 7 7 7 7 7 6 6 6 6 6 6 6 6 6 6 6 6 6 6 6 5 5 5 5 5 5 5 5 5 5 5 5 5 4 4 4 4 4 4 4 4 3 3 3 3 3 3 3
6 6 6 6 6 6 6 6 6 6 6 7 6 6 6 6 6 6 6 6 6 6 6 6 6 6 6 6 6 6 6 6 6 6 6 5 5 5 5 5 5 5 5 5 5 5 4 4 4 4 4 4 4 4 4 4 4 3 3 3 3 3 3 3 3 2 2 2 2
6 6 6 6 6 6 6 6 6 6 6 6 6 6 6 6 6 6 6 6 6 6 6 6 6 6 6 6 5 5 5 5 5 5 5 5 5 5 5 5 4 4 4 4 4 4 4 4 4 3 3 3 3 3 3 3 3 3 3 3 2 2 2 2 2 2 2 2 2
5 5 5 5 5 5 5 5 5 6 6 6 6 6 6 6 5 5 5 5 5 5 5 5 5 5 5 5 5 5 5 5 5 5 4 4 4 4 4 4 4 4 3 3 3 3 3 3 3 3 3 3 3 2 2 2 2 2 2 2 2 2 2 2 2 2 2 1 1
5 5 5 5 5 5 5 5 5 5 5 5 5 5 5 5 5 5 5 5 5 5 5 5 5 5 5 5 4 4 4 4 4 4 4 4 4 3 3 3 3 3 3 3 3 3 2 2 2 2 2 2 2 2 2 2 2 2 2 2 2 2 2 2 1 1 1 1 1
4 4 4 4 5 5 5 5 5 5 5 5 5 5 5 5 5 5 5 5 5 4 4 4 4 4 4 4 4 4 3 3 3 3 3 3 3 3 3 3 3 2 2 2 2 2 2 2 2 2 2 2 2 2 1 1 1 1 1 1 1 1 1 1 1 1 1 1 1
4 4 4 4 4 4 5 5 5 5 5 5 5 5 4 4 4 4 4 4 4 4 4 4 3 3 3 3 3 3 3 3 3 3 3 3 3 2 2 2 2 2 2 2 2 2 2 2 2 2 2 1 1 1 1 1 1 1 1 1 1 1 1 1 1 0 0 0 0
4 4 4 4 4 4 4 4 4 4 4 4 4 4 4 4 4 3 3 3 3 3 3 3 3 3 3 3 3 3 3 2 2 2 2 2 2 2 2 2 2 2 2 2 2 2 2 2 1 1 1 1 1 0 0 0 -0 -0 -0 -0 0 0 0 0 0 0 0 0 0
4 4 4 4 4 4 4 4 4 4 4 4 3 3 3 3 3 3 3 3 3 3 3 3 2 2 2 2 2 2 2 2 2 2 2 2 2 2 2 2 2 2 2 1 1 1 1 1 1 1 1 0 0 -0 -0 -0 -1 -1 -1 -1 -1 -0 -0 -0 -0 -0 -0 -0 -0
4 4 4 4 4 4 4 3 3 3 3 3 3 3 3 3 3 3 3 3 3 2 2 2 2 2 2 2 2 2 2 2 2 2 2 2 2 2 2 2 2 1 1 1 1 1 1 1 1 0 0 -0 -0 -0 -1 -1 -1 -1 -1 -1 -1 -1 -1 -1 -1 -1 -1 -1 -1
3 3 3 3 3 3 3 3 3 3 3 3 3 3 3 3 2 2 2 2 2 2 2 2 2 2 2 2 2 2 2 2 2 2 2 2 2 2 1 1 1 1 1 1 1 1 0 0 0 0 -0 -0 -0 -1 -1 -1 -1 -1 -1 -1 -1 -1 -1 -1 -1 -1 -1 -1 -1
3 3 3 3 3 3 3 3 3 3 3 2 2 2 2 2 2 2 2 2 2 2 2 2 2 2 2 2 2 2 2 2 1 1 1 1 1 1 1 1 1 1 1 0 0 0 0 0 0 -0 -0 -0 -1 -1 -1 -1 -1 -1 -1 -2 -2 -2 -2 -2 -2 -2 -2 -2 -2
3 3 3 3 3 3 3 2 2 2 2 2 2 2 2 2 2 2 2 2 2 2 2 2 2 2 2 1 1 1 1 1 1 1 1 1 1 1 1 1 1 1 1 0 0 0 -0 -0 -0 -0 -0 -1 -1 -1 -1 -1 -1 -2 -2 -2 -2 -3 -3 -3 -3 -3 -2 -2 -2
3 3 3 2 2 2 2 2 2 2 2 2 2 2 2 2 2 2 2 2 2 2 1 1 1 1 1 1 1 1 1 1 1 1 1 1 1 1 1 1 1 1 0 0 0 -0 -0 -0 -0 -0 -1 -1 -1 -1 -1 -2 -2 -2 -3 -3 -3 -3 -3 -3 -3 -3 -3 -3 -3
2 2 2 2 2 2 2 2 2 2 2 2 2 2 1 1 1 1 1 1 1 1 1 1 1 1 1 1 1 1 1 1 1 1 1 1 1 1 1 1 1 0 0 0 -0 -0 -0 -0 -1 -1 -1 -1 -1 -1 -2 -2 -3 -3 -3 -3 -3 -3 -3 -3 -3 -3 -3 -3 -3
2 2 2 1 2 2 2 2 2 2 2 2 1 1 1 1 1 1 1 1 1 1 1 1 1 1 1 1 1 1 1 1 1 1 0 0 0 0 0 0 0 0 0 -0 -0 -0 -1 -1 -1 -1 -1 -1 -1 -2 -2 -3 -3 -3 -4 -4 -4 -4 -4 -4 -4 -4 -4 -4 -4
1 1 1 1 2 2 2 2 2 2 1 1 1 1 1 1 1 1 1 1 1 1 1 1 1 1 1 1 1 1 1 1 1 0 0 0 0 -0 -0 -0 -0 -0 -0 -0 -0 -1 -1 -1 -1 -1 -1 -2 -2 -2 -3 -3 -4 -4 -4 -5 -5 -6 -6 -6 -6 -6 -5 -5 -5
1 1 1 2 2 2 2 2 1 1 1 1 1 1 1 1 1 1 1 1 1 1 1 1 1 1 1 1 1 1 1 0 0 0 -0 -0 -0 -0 -0 -0 -0 -0 -0 -1 -1 -1 -1 -1 -1 -1 -2 -2 -2 -3 -4 -4 -5 -5 -6 -6 -6 -7 -7 -7 -7 -7 -6 -6 -6
Height
1446 1447 1448 1449 1449 1449 1450 1450 1450 1451 1452 1452 1453 1453 1453 1453 1453 1453 1453 1454 1454 1454 1454 1454 1454 1453 1453 1453 1453 1453 1454 1454 1454 1454 1454 1454 1454 1455 1455 1456 1457 1457 1458 1459 1460 1462 1463 1463 1463 1463 1464 1465 1466 1467 1467 1468 1469 1470 1470 1471 1472 1473 1473 1473 1473 1473 1473 1473 1474
1444 1445 1446 1446 1447 1448 1448 1449 1449 1450 1451 1451 1451 1452 1452 1452 1452 1452 1452 1452 1452 1452 1452 1452 1452 1452 1451 1451 1452 1452 1452 1453 1453 1453 1453 1453 1453 1453 1454 1454 1455 1456 1457 1458 1460 1461 1462 1462 1462 1462 1463 1464 1465 1466 1467 1467 1468 1469 1470 1470 1471 1471 1471 1471 1471 1471 1472 1473 1473
1443 1443 1444 1445 1446 1446 1447 1448 1448 1448 1449 1449 1450 1450 1450 1451 1451 1451 1451 1450 1450 1450 1450 1450 1450 1450 1449 1449 1450 1450 1451 1451 1451 1451 1452 1452 1452 1452 1453 1453 1453 1454 1456 1457 1459 1460 1460 1460 1460 1460 1461 1462 1463 1465 1466 1466 1467 1468 1468 1469 1470 1470 1470 1470 1470 1470 1471 1472 1472
1441 1442 1443 1444 1444 1445 1446 1446 1447 1447 1448 1448 1448 1449 1449 1449 1449 1449 1449 1449 1449 1449 1449 1449 1448 1448 1448 1448 1448 1448 1448 1449 1450 1450 1451 1451 1452 1452 1453 1453 1453 1454 1455 1457 1458 1458 1459 1459 1459 1459 1460 1461 1463 1464 1464 1465 1466 1466 1467 1468 1468 1468 1468 1468 1469 1469 1470 1471 1471
1440 1441 1442 1443 1443 1444 1444 1445 1446 1446 1447 1447 1447 1448 1448 1448 1448 1448 1448 1448 1448 1448 1448 1448 1448 1448 1447 1447 1447 1447 1447 1448 1448 1449 1450 1451 1452 1452 1453 1453 1454 1454 1456 1457 1458 1458 1458 1458 1458 1458 1459 1460 1461 1462 1463 1464 1464 1465 1466 1466 1466 1467 1467 1468 1468 1469 1470 1470 1470
1439 1440 1441 1442 1442 1443 1443 1444 1445 1445 1446 1446 1446 1446 1447 1447 1447 1447 1448 1448 1448 1448 1447 1447 1447 1447 1447 1447 1447 1447 1446 1447 1447 1448 1448 1448 1449 1449 1450 1450 1451 1453 1454 1455 1456 1456 1457 1457 1457 1458 1458 1459 1460 1461 1462 1463 1464 1465 1465 1466 1466 1466 1467 1468 1468 1468 1468 1468 1468
1438 1439 1440 1441 1441 1442 1443 1443 1444 1444 1444 1445 1445 1446 1446 1446 1446 1446 1446 1446 1446 1446 1446 1447 1447 1447 1447 1446 1446 1446 1446 1445 1445 1445 1445 1446 1446 1448 1448 1449 1450 1451 1451 1452 1453 1454 1455 1456 1457 1458 1458 1459 1460 1461 1462 1463 1463 1464 1465 1465 1465 1466 1467 1468 1468 1468 1467 1467 1467
1437 1438 1439 1440 1441 1441 1442 1443 1443 1443 1444 1444 1445 1445 1445 1445 1445 1445 1445 1446 1446 1446 1446 1446 1447 1447 1447 1447 1447 1446 1446 1446 1446 1446 1446 1446 1447 1448 1449 1450 1450 1450 1451 1452 1453 1453 1455 1456 1457 1458 1459 1460 1461 1461 1462 1462 1463 1463 1464 1465 1466 1467 1467 1467 1467 1466 1466 1465 1465
1437 1438 1438 1439 1440 1441 1441 1442 1442 1443 1443 1444 1444 1445 1445 1445 1445 1445 1446 1446 1446 1446 1446 1447 1447 1447 1447 1447 1447 1447 1447 1447 1447 1447 1447 1448 1448 1449 1449 1450 1451 1451 1452 1452 1453 1454 1455 1457 1458 1459 1460 1460 1460 1460 1461 1462 1462 1463 1464 1465 1466 1466 1466 1465 1465 1464 1464 1463 1463
1436 1437 1438 1439 1439 1440 1441 1441 1442 1442 1443 1443 1444 1444 1445 1445 1445 1446 1446 1446 1446 1446 1446 1447 1447 1447 1447 1447 1447 1447 1447 1447 1447 1447 1448 1448 1448 1449 1450 1451 1451 1452 1453 1453 1454 1455 1456 1457 1458 1458 1459 1459 1459 1460 1461 1462 1463 1464 1465 1465 1465 1464 1464 1463 1463 1462 1462 1461 1461
1436 1437 1438 1439 1439 1440 1441 1441 1442 1442 1442 1443 1443 1444 1444 1445 1445 1445 1446 1446 1446 1446 1446 1447 1447 1447 1447 1447 1447 1447 1447 1447 1447 1447 1448 1448 1449 1449 1450 1451 1452 1452 1453 1454 1455 1455 1456 1457 1457 1458 1458 1458 1459 1460 1461 1462 1463 1463 1463 1463 1463 1462 1461 1461 1460 1460 1460 1459 1459
1436 1437 1438 1439 1440 1440 1441 1441 1442 1442 1443 1443 1443 1443 1444 1444 1444 1445 1445 1446 1446 1446 1446 1447 1447 1447 1447 1447 1447 1447 1447 1447 1448 1448 1448 1448 1449 1450 1450 1451 1452 1452 1453 1453 1454 1454 1455 1456 1457 1458 1458 1459 1460 1461 1461 1462 1462 1462 1461 1461 1460 1459 1459 1458 1458 1458 1458 1457 1457
1437 1438 1438 1439 1440 1441 1441 1442 1442 1443 1443 1443 1443 1443 1443 1444 1444 1445 1445 1446 1446 1446 1446 1446 1447 1447 1447 1447 1447 1447 1447 1448 1448 1448 1448 1449 1449 1450 1450 1451 1452 1452 1453 1453 1454 1455 1456 1457 1458 1459 1459 1460 1460 1461 1461 1460 1460 1459 1458 1458 1457 1457 1456 1456 1456 1456 1455 1455 1455
1437 1438 1439 1440 1441 1441 1442 1442 1442 1442 1442 1442 1443 1443 1444 1444 1445 1446 1446 1446 1446 1446 1446 1447 1447 1447 1447 1447 1447 1448 1448 1448 1448 1449 1449 1449 1450 1450 1451 1452 1452 1453 1454 1454 1455 1456 1457 1458 1459 1460 1460 1460 1459 1459 1458 1458 1457 1457 1456 1455 1455 1454 1454 1454 1454 1453 1453 1453 1453
1438 1439 1440 1441 1441 1441 1441 1441 1442 1442 1442 1443 1443 1444 1444 1445 1445 1446 1446 1446 1446 1447 1447 1447 1448 1448 1448 1448 1449 1449 1449 1449 1450 1450 1450 1451 1451 1452 1453 1453 1454 1454 1455 1456 1457 1458 1458 1459 1459 1459 1458 1458 1457 1457 1456 1455 1455 1454 1454 1454 1453 1453 1453 1452 1452 1452 1452 1452 1451
1439 1439 1440 1440 1440 1441 1441 1442 1442 1443 1443 1443 1444 1445 1445 1445 1446 1446 1446 1447 1447 1448 1448 1448 1449 1449 1449 1450 1450 1450 1450 1450 1451 1451 1451 1452 1452 1453 1453 1454 1454 1455 1456 1457 1458 1458 1458 1458 1458 1457 1457 1456 1455 1455 1454 1454 1453 1453 1453 1452 1452 1451 1451 1451 1450 1450 1450 1450 1450
1438 1439 1439 1440 1441 1441 1442 1442 1443 1443 1444 1444 1445 1445 1446 1446 1447 1447 1448 1448 1448 1449 1449 1449 1450 1450 1450 1450 1450 1451 1451 1451 1451 1451 1452 1452 1453 1453 1453 1454 1454 1455 1456 1456 1456 1456 1456 1456 1456 1456 1455 1454 1454 1453 1453 1453 1452 1452 1451 1451 1450 1450 1449 1449 1448 1448 1448 1448 1448
1438 1439 1440 1441 1442 1442 1443 1443 1444 1444 1445 1445 1446 1446 1447 1447 1448 1448 1448 1449 1449 1450 1450 1450 1450 1450 1450 1450 1450 1451 1451 1451 1451 1452 1452 1452 1453 1453 1453 1454 1454 1455 1455 1455 1455 1455 1455 1455 1454 1454 1453 1453 1453 1452 1452 1451 1450 1450 1449 1448 1448 1448 1447 1447 1447 1446 1446 1446 1445
1440 1441 1442 1443 1443 1443 1444 1444 1445 1446 1446 1447 1447 1448 1448 1448 1449 1449 1449 1449 1450 1450 1450 1450 1450 1450 1450 1450 1450 1451 1451 1451 1452 1452 1452 1453 1453 1453 1453 1454 1454 1454 1454 1454 1454 1454 1453 1453 1453 1453 1452 1451 1451 1450 1449 1449 1448 1448 1447 1447 1446 1446 1445 1445 1444 1444 1444 1443 1443
1442 1443 1443 1444 1445 1445 1446 1446 1447 1447 1448 1448 1448 1448 1449 1449 1449 1449 1450 1450 1450 1450 1450 1450 1450 1450 1450 1451 1451 1451 1451 1452 1452 1452 1453 1453 1453 1453 1453 1453 1453 1453 1453 1453 1453 1452 1452 1451 1451 1450 1450 1449 1448 1448 1447 1447 1446 1446 1445 1445 1444 1444 1443 1443 1443 1442 1442 1442 1441
1443 1444 1445 1446 1446 1447 1447 1448 1448 1448 1448 1449 1449 1449 1449 1449 1449 1450 1450 1450 1450 1450 1450 1451 1451 1451 1451 1451 1451 1452 1452 1452 1452 1453 1453 1453 1453 1453 1452 1452 1452 1452 1451 1451 1451 1450 1450 1449 1448 1448 1448 1447 1446 1446 1445 1445 1444 1444 1443 1443 1443 1442 1442 1441 1441 1441 1440 1440 1439
1445 1446 1446 1447 1447 1448 1448 1448 1449 1449 1449 1449 1449 1449 1449 1449 1450 1450 1450 1450 1451 1451 1451 1451 1451 1451 1451 1452 1452 1452 1452 1452 1452 1452 1452 1452 1452 1451 1451 1451 1450 1450 1449 1449 1448 1448 1448 1447 1446 1446 1445 1445 1444 1444 1443 1443 1443 1442 1442 1441 1441 1441 1440 1440 1439 1439 1438 1438 1438
1446 1447 1447 1448 1448 1448 1449 1449 1449 1449 1450 1450 1450 1450 1450 1450 1450 1451 1451 1451 1451 1451 1451 1452 1452 1452 1452 1452 1452 1452 1452 1451 1451 1451 1451 1450 1450 1450 1449 1449 1448 1448 1448 1447 1447 1446 1446 1445 1444 1444 1444 1443 1443 1443 1442 1442 1441 1441 1440 1440 1440 1439 1439 1438 1438 1437 1437 1437 1436
1447 1448 1448 1448 1449 1449 1449 1450 1450 1450 1450 1450 1450 1450 1451 1451 1451 1451 1451 1451 1452 1452 1452 1452 1452 1451 1451 1451 1451 1451 1450 1450 1450 1449 1449 1449 1448 1448 1448 1448 1447 1447 1446 1446 1445 1445 1444 1444 1443 1443 1443 1442 1442 1441 1441 1440 1440 1440 1439 1439 1438 1438 1437 1437 1436 1436 1435 1435 1435
1448 1448 1449 1449 1450 1450 1450 1450 1450 1451 1451 1451 1451 1451 1451 1451 1451 1451 1451 1451 1451 1451 1451 1451 1451 1451 1450 1450 1450 1450 1449 1449 1449 1448 1448 1448 1448 1447 1447 1447 1446 1446 1445 1445 1444 1444 1443 1443 1443 1442 1442 1441 1441 1440 1440 1439 1439 1438 1438 1438 1437 1437 1436 1435 1435 1434 1434 1433 1433
1449 1449 1450 1450 1450 1451 1451 1451 1451 1451 1451 1451 1451 1451 1451 1451 1451 1451 1451 1451 1451 1451 1451 1450 1450 1450 1450 1450 1449 1449 1449 1448 1448 1448 1448 1447 1447 1447 1446 1446 1446 1445 1445 1444 1444 1443 1443 1442 1442 1441 1440 1440 1439 1439 1438 1438 1438 1437 1437 1436 1435 1435 1434 1434 1433 1433 1433 1432 1432
1450 1450 1450 1451 1451 1451 1451 1451 1451 1451 1451 1451 1451 1451 1451 1451 1451 1451 1451 1451 1451 1450 1450 1450 1450 1450 1449 1449 1449 1449 1448 1448 1448 1448 1447 1447 1447 1446 1446 1445 1445 1444 1444 1443 1443 1442 1442 1441 1440 1439 1439 1438 1438 1437 1437 1436 1435 1435 1434 1434 1433 1433 1433 1432 1432 1431 1431 1430 1429
1450 1450 1451 1451 1451 1451 1451 1451 1451 1451 1451 1451 1451 1451 1451 1451 1451 1451 1451 1451 1450 1450 1450 1450 1450 1449 1449 1449 1449 1448 1448 1448 1447 1447 1447 1446 1446 1445 1445 1444 1444 1443 1443 1442 1441 1441 1440 1439 1439 1438 1437 1437 1436 1435 1434 1434 1433 1433 1432 1432 1431 1431 1430 1430 1429 1429 1428 1428 1427
1451 1451 1451 1451 1451 1451 1451 1451 1451 1451 1451 1451 1451 1451 1451 1451 1451 1451 1451 1450 1450 1450 1450 1450 1449 1449 1449 1448 1448 1448 1448 1447 1447 1446 1446 1445 1445 1444 1444 1443 1443 1442 1441 1441 1440 1439 1438 1438 1437 1436 1435 1434 1434 1433 1432 1431 1431 1430 1430 1429 1429 1428 1428 1427 1427 1426 1426 1425 1425
1451 1451 1452 1452 1452 1452 1452 1452 1452 1452 1452 1452 1451 1451 1451 1451 1451 1451 1450 1450 1450 1450 1449 1449 1449 1448 1448 1448 1447 1447 1447 1446 1446 1445 1445 1444 1443 1443 1442 1442 1441 1440 1440 1439 1438 1438 1437 1436 1435 1434 1433 1433 1432 1431 1430 1429 1429 1428 1428 1427 1427 1426 1426 1425 1425 1424 1423 1423 1423
1452 1452 1452 1452 1452 1452 1452 1452 1452 1452 1452 1452 1451 1451 1451 1451 1450 1450 1450 1450 1449 1449 1449 1448 1448 1448 1447 1447 1446 1446 1445 1445 1444 1444 1443 1443 1442 1442 1441 1440 1439 1439 1438 1437 1437 1436 1435 1434 1433 1432 1431 1431 1430 1429 1428 1428 1427 1427 1426 1425 1425 1424 1424 1423 1423 1422 1421 1421 1420
1452 1453 1453 1453 1453 1452 1452 1452 1452 1452 1452 1452 1451 1451 1451 1451 1450 1450 1450 1449 1449 1449 1448 1448 1448 1447 1447 1446 1446 1445 1444 1444 1443 1443 1442 1442 1441 1440 1439 1439 1438 1437 1436 1436 1435 1434 1433 1433 1432 1431 1430 1429 1428 1427 1427 1426 1425 1425 1424 1423 1423 1422 1422 1421 1420 1419 1419 1418 1418
1453 1453 1453 1453 1453 1453 1452 1452 1452 1452 1452 1452 1451 1451 1451 1451 1450 1450 1449 1449 1449 1448 1448 1448 1447 1447 1446 1445 1445 1444 1443 1443 1442 1441 1441 1440 1439 1439 1438 1437 1437 1436 1435 1434 1433 1433 1432 1431 1430 1429 1428 1427 1426 1426 1425 1424 1423 1423 1422 1421 1420 1420 1419 1418 1418 1417 1416 1416 1415
1453 1453 1453 1453 1453 1453 1453 1453 1452 1452 1452 1452 1451 1451 1451 1451 1450 1450 1449 1449 1448 1448 1447 1447 1446 1446 1445 1444 1444 1443 1442 1442 1441 1440 1439 1439 1438 1438 1437 1436 1435 1434 1434 1433 1432 1431 1430 1429 1429 1428 1427 1426 1425 1424 1423 1422 1421 1420 1419 1419 1418 1417 1417 1416 1415 1414 1414 1413 1412
1453 1453 1454 1453 1453 1453 1453 1453 1453 1453 1452 1452 1451 1451 1451 1450 1450 1449 1449 1448 1448 1447 1446 1446 1445 1444 1444 1443 1443 1442 1441 1440 1440 1439 1438 1438 1437 1436 1435 1435 1434 1433 1433 1432 1431 1430 1429 1428 1427 1426 1425 1424 1423 1422 1421 1420 1419 1418 1417 1416 1415 1415 1414 1413 1413 1412 1411 1410 1410
1455 1455 1455 1454 1454 1454 1454 1453 1453 1453 1452 1452 1451 1450 1450 1449 1449 1448 1448 1447 1447 1446 1445 1445 1444 1443 1443 1442 1441 1441 1440 1439 1438 1438 1437 1436 1435 1434 1434 1433 1433 1432 1431 1430 1429 1428 1427 1426 1425 1424 1423 1422 1421 1419 1418 1417 1416 1415 1415 1414 1413 1412 1412 1411 1410 1409 1408 1408 1407
1456 1455 1455 1455 1454 1454 1453 1453 1453 1452 1451 1451 1450 1449 1449 1448 1448 1447 1447 1446 1446 1445 1444 1444 1443 1443 1442 1441 1440 1440 1439 1438 1437 1436 1435 1434 1433 1433 1432 1431 1431 1430 1429 1428 1427 1426 1425 1424 1423 1422 1421 1420 1418 1417 1416 1415 1414 1413 1413 1412 1411 1410 1409 1408 1408 1407 1406 1405 1404
1456 1455 1455 1454 1454 1453 1453 1452 1451 1451 1450 1450 1449 1448 1448 1448 1447 1446 1446 1445 1445 1444 1443 1443 1442 1442 1441 1440 1439 1438 1437 1436 1435 1434 1433 1432 1431 1430 1430 1429 1428 1428 1427 1426 1425 1424 1423 1422 1421 1420 1419 1418 1416 1415 1414 1413 1412 1411 1410 1409 1408 1408 1407 1406 1405 1404 1403 1403 1402
1455 1454 1453 1453 1453 1452 1451 1451 1450 1450 1449 1449 1448 1448 1448 1447 1447 1446 1445 1444 1444 1443 1442 1442 1441 1440 1439 1438 1437 1437 1436 1435 1434 1433 1432 1430 1429 1428 1428 1427 1426 1425 1425 1424 1423 1422 1421 1420 1419 1418 1417 1415 1414 1413 1412 1411 1410 1409 1408 1407 1406 1405 1404 1404 1403 1402 1401 1400 1400
1453 1453 1453 1452 1452 1451 1451 1450 1450 1449 1449 1448 1448 1448 1447 1446 1446 1445 1444 1443 1443 1442 1441 1440 1439 1438 1437 1436 1435 1435 1434 1433 1432 1431 1430 1428 1428 1427 1426 1424 1423 1423 1422 1422 1421 1420 1419 1418 1417 1416 1415 1413 1412 1411 1410 1408 1408 1407 1406 1405 1404 1403 1403 1402 1401 1400 1399 1398 1398
1453 1453 1452 1452 1451 1451 1451 1450 1450 1449 1449 1448 1448 1447 1446 1445 1445 1444 1443 1442 1441 1440 1439 1438 1438 1437 1436 1435 1433 1433 1432 1431 1430 1429 1428 1427 1425 1424 1423 1423 1421 1421 1420 1419 1419 1418 1417 1416 1415 1414 1413 1412 1410 1409 1408 1407 1406 1405 1404 1404 1403 1402 1401 1400 1399 1398 1398 1397 1396
Wind_Speed
21 21 20 19 18 19 19 19 19 18 18 18 18 18 18 18 19 20 20 20 20 20 21 23 24 26 27 27 27 26 25 25 25 26 28 30 33 35 35 35 35 34 32 30 28 28 28 30 32 34 35 34 31 27 23 21 21 20 19 18 17 17 17 17 17 17 17 17 17
23 22 22 21 20 20 20 19 19 18 18 18 18 18 19 19 19 20 20 20 20 21 23 25 26 28 29 30 29 28 27 26 26 26 28 30 32 33 34 34 34 34 32 29 27 27 27 28 30 32 34 34 32 28 24 22 20 20 19 19 19 19 18 17 17 17 17 17 17
23 22 22 21 20 20 19 18 18 18 18 18 18 19 20 20 20 19 19 20 22 23 25 27 29 30 31 32 31 30 29 27 27 27 27 28 29 30 31 33 34 34 32 29 28 27 26 25 27 29 32 33 32 29 26 23 21 20 19 19 18 17 15 15 15 15 16 16 17
22 22 21 20 20 19 19 18 18 18 18 18 19 20 20 20 19 19 20 21 23 25 26 28 28 29 30 31 31 31 30 29 28 27 26 25 23 22 23 24 26 27 26 25 24 22 21 20 21 22 24 25 25 23 21 19 17 15 13 12 11 11 11 12 12 13 15 16 16
22 21 21 20 20 19 18 18 18 19 20 21 21 21 21 20 20 20 21 22 24 23 22 23 23 24 24 25 25 26 27 26 25 24 22 19 17 17 16 16 16 16 16 15 14 12 11 11 11 11 12 13 13 11 10 9 8 7 7 7 7 8 9 11 12 14 15 15 16
21 21 20 20 19 18 18 19 20 21 22 23 22 21 21 20 20 21 22 22 21 19 18 18 18 18 19 19 20 21 23 23 23 23 22 21 20 18 17 16 15 14 12 11 8 6 4 3 3 3 4 4 3 3 3 3 4 5 6 7 8 9 11 13 14 15 15 15 16
19 19 18 18 17 18 18 20 21 22 22 22 21 20 19 19 20 20 20 20 18 16 16 16 17 17 18 18 20 21 22 23 24 24 23 22 20 18 16 14 13 12 10 9 7 5 4 3 3 2 1 1 1 1 2 3 5 6 7 9 10 11 13 15 15 15 16 16 16
17 16 15 15 15 16 18 19 20 20 20 19 18 17 17 17 18 18 18 17 17 17 17 17 17 17 17 18 18 19 19 20 20 19 18 17 15 13 11 9 8 7 7 6 6 5 4 3 3 3 2 2 3 3 4 5 6 7 9 11 12 14 15 16 16 16 17 17 18
13 12 12 13 14 15 16 16 15 15 15 15 16 17 18 19 19 19 19 19 19 18 18 17 16 16 15 15 15 15 15 14 13 12 11 9 8 6 5 4 4 4 4 4 5 4 3 2 0 2 3 4 4 5 6 7 8 10 12 14 15 16 17 17 17 18 18 19 19
11 11 12 12 12 12 12 13 15 17 18 20 21 22 22 21 21 20 19 18 17 16 15 14 13 12 12 12 12 12 11 10 9 8 7 6 6 6 6 6 6 6 6 5 4 3 2 2 3 4 5 6 7 8 9 10 12 13 15 16 17 18 18 19 19 19 19 20 21
12 12 12 13 15 17 19 22 23 24 24 25 24 24 22 20 19 17 16 14 13 13 12 11 11 10 10 10 10 10 9 8 8 7 6 6 5 4 4 4 5 6 6 6 6 6 6 6 7 8 9 10 11 12 13 14 15 16 17 18 18 19 19 19 19 20 20 21 21
16 17 19 22 24 26 27 27 27 26 25 24 23 21 20 18 17 15 14 13 12 11 10 10 10 9 9 9 9 9 9 8 7 6 5 4 3 3 3 4 6 7 8 9 9 9 9 10 10 11 12 13 14 15 16 16 17 17 17 18 18 18 19 19 19 20 20 20 21
23 25 27 27 28 27 26 26 24 23 22 22 21 19 18 17 15 14 13 12 11 10 9 9 9 9 9 10 10 10 9 8 6 5 4 4 4 4 5 7 8 10 11 12 12 12 12 12 12 13 14 15 16 16 16 16 16 16 16 17 17 18 18 19 19 19 20 20 20
28 28 28 26 25 24 23 22 22 21 20 20 19 18 16 15 14 13 12 11 10 9 9 9 8 9 9 10 10 9 9 8 7 7 7 6 7 8 8 9 10 11 12 12 12 12 12 13 14 14 15 15 15 15 15 15 15 16 16 16 17 18 18 19 19 19 20 20 21
27 26 24 23 22 21 21 20 20 19 19 18 17 15 14 13 12 12 11 10 10 9 9 9 8 8 8 8 8 8 7 7 7 7 7 7 8 8 9 9 9 10 10 10 10 11 13 14 14 14 14 14 14 14 15 15 15 16 16 17 17 18 19 19 20 20 21 21 22
25 23 22 21 21 20 19 19 18 17 17 16 15 14 13 13 12 12 11 10 10 9 8 8 7 6 6 5 5 4 4 4 4 4 4 4 4 5 5 6 6 7 8 9 11 12 12 13 13 13 14 14 14 15 15 15 16 16 17 18 18 19 20 20 21 21 22 22 22
23 22 21 20 19 18 18 17 17 16 16 15 14 14 13 13 12 11 10 9 8 7 6 5 5 4 3 2 2 1 1 1 1 2 2 2 3 3 4 5 6 7 8 9 10 11 12 12 13 14 14 15 15 16 16 17 17 18 18 19 20 20 21 21 22 22 23 23 23
22 21 19 18 17 17 16 15 15 15 14 14 13 13 12 11 10 9 8 7 7 6 5 4 3 3 2 2 1 1 1 1 1 1 1 2 3 4 5 6 7 8 9 10 11 12 13 14 14 15 15 16 17 17 18 18 18 19 19 20 20 21 21 22 22 23 23 23 23
20 19 18 17 16 15 14 14 13 13 13 12 12 11 11 10 9 8 7 7 6 5 5 4 3 3 2 2 2 1 1 0 1 2 2 3 4 5 6 7 8 9 10 11 12 13 14 15 15 16 16 17 17 18 18 19 19 19 20 20 21 21 22 22 22 23 23 23 23
19 18 17 16 15 14 14 13 13 12 12 12 11 11 10 10 9 8 7 6 6 5 5 4 3 3 2 2 1 0 1 2 3 4 5 6 6 7 8 9 10 11 12 12 13 14 15 15 16 16 17 17 18 18 19 19 19 20 20 21 21 21 22 22 22 22 23 23 23
18 18 17 16 16 15 15 14 14 13 13 12 12 11 10 10 9 8 7 6 6 5 4 3 3 2 1 1 1 2 3 4 5 6 6 7 8 9 10 10 11 12 12 13 14 14 15 16 16 17 17 18 18 19 19 19 20 20 20 21 21 21 22 22 22 22 23 23 23
20 19 18 18 17 16 16 15 14 14 13 12 11 11 10 9 8 7 6 6 5 4 3 2 2 1 2 2 3 4 5 5 6 7 8 8 9 10 10 11 12 12 13 14 14 15 16 16 17 17 18 18 19 19 19 20 20 20 20 21 21 22 22 22 22 23 23 23 23
21 20 19 18 17 17 16 15 14 13 12 11 11 10 9 8 7 6 5 4 3 3 2 1 1 2 3 3 4 5 6 6 7 8 8 9 10 10 11 12 13 13 14 14 15 16 16 17 17 18 18 18 19 19 20 20 20 20 21 21 21 22 22 22 22 23 23 23 23
21 20 19 18 17 16 15 14 13 12 11 10 9 8 7 6 5 4 3 2 2 1 0 1 2 3 4 5 6 6 7 8 8 9 10 10 11 11 12 13 13 14 14 15 15 16 16 17 17 18 18 19 19 19 20 20 20 20 20 21 21 21 22 22 22 22 22 22 23
20 18 17 16 15 14 13 12 11 10 9 8 7 6 5 4 4 3 2 1 1 2 2 3 4 5 6 6 7 8 9 9 10 10 11 11 12 12 12 13 13 14 14 15 15 16 16 17 17 18 18 19 19 19 20 20 20 20 20 21 21 21 21 22 22 22 22 22 22
18 17 16 14 13 12 11 10 9 8 8 7 6 5 4 4 3 3 3 3 3 4 5 5 6 6 7 8 8 9 9 10 10 11 11 11 12 12 12 13 13 13 14 14 15 15 16 17 17 18 18 19 19 20 20 20 20 20 20 21 21 21 21 21 22 22 22 22 22
16 15 14 13 12 11 10 9 8 8 7 6 6 5 4 4 4 4 4 4 5 6 6 6 7 7 8 8 9 9 9 10 10 11 11 11 12 12 12 13 13 13 14 14 15 15 16 17 17 18 19 19 20 20 21 21 21 21 21 22 22 22 22 22 22 22 23 23 23
15 14 12 11 10 10 9 9 8 7 7 6 6 5 5 5 5 5 5 6 6 7 7 7 8 8 9 9 9 9 9 10 10 10 11 11 12 12 12 13 13 14 14 15 15 16 17 17 18 19 19 20 21 22 22 23 23 23 23 23 23 23 24 24 24 24 24 24 24
13 12 11 10 10 9 9 8 7 7 7 6 6 6 6 6 6 6 7 7 7 8 8 8 8 9 9 9 9 10 10 10 10 11 11 12 12 12 13 13 14 15 15 16 16 17 18 18 19 20 21 21 22 23 24 24 25 25 25 25 25 25 25 25 25 25 25 25 25
12 11 10 10 9 8 8 7 7 7 6 6 6 6 7 7 7 7 8 8 8 8 9 9 9 9 10 10 10 10 11 11 11 12 12 13 13 14 14 15 15 16 17 17 18 19 19 20 21 21 22 23 23 24 24 25 26 26 26 26 26 26 26 26 26 26 26 26 26
11 10 10 9 8 8 7 7 7 7 7 7 7 7 7 8 8 8 8 9 9 9 9 10 10 10 10 11 11 12 12 13 13 13 14 14 15 15 16 16 17 18 19 19 20 20 21 22 22 23 23 24 24 25 25 26 26 26 27 27 27 27 27 27 27 27 27 27 27
10 10 9 9 8 8 8 8 8 8 8 8 8 8 8 8 8 9 9 9 9 10 10 10 10 11 11 12 12 13 14 14 15 15 16 16 17 17 17 18 18 19 20 21 21 22 22 23 23 24 24 24 25 25 26 26 27 27 27 28 28 28 28 28 28 28 28 28 28
10 10 9 9 9 9 8 8 8 8 8 8 8 8 8 8 9 9 9 10 10 10 11 11 12 12 12 13 14 14 15 16 16 17 18 18 18 19 19 19 20 20 21 22 22 23 23 23 24 24 25 25 26 26 27 27 28 28 29 29 29 29 29 29 29 28 29 28 28
10 10 10 9 9 9 9 8 8 8 8 8 8 8 8 9 9 9 10 10 11 11 12 12 13 14 14 15 15 16 17 17 18 18 19 19 20 20 21 21 21 21 22 22 23 23 24 24 25 25 26 26 27 28 28 29 29 29 29 29 30 30 30 29 29 29 29 29 29
10 9 9 8 8 8 8 8 8 8 8 8 9 9 10 10 10 11 11 12 12 13 13 14 15 15 16 16 17 17 18 19 19 20 20 21 21 21 22 22 22 22 23 23 24 24 25 25 26 26 27 27 28 29 29 29 30 30 30 30 30 30 30 29 29 29 29 29 28
8 8 8 7 7 7 7 8 8 9 9 10 10 11 11 12 12 13 13 13 14 14 15 15 16 17 17 18 18 18 19 20 20 21 22 22 23 23 23 24 24 24 24 24 25 25 26 26 27 27 28 28 29 30 30 30 30 30 30 29 29 29 29 29 29 29 28 28 27
7 7 7 8 8 8 9 10 10 11 11 12 12 13 13 14 14 15 15 15 15 16 16 17 17 18 18 19 19 20 20 21 22 23 23 24 24 25 25 25 25 25 25 25 26 26 27 27 27 28 28 29 30 30 30 30 30 29 29 28 28 28 28 28 28 28 28 28 28
8 9 9 10 11 11 12 12 13 13 13 14 14 14 15 15 15 16 16 16 17 17 18 18 19 19 20 20 21 21 22 22 23 24 25 26 26 27 27 27 27 27 27 27 27 27 28 28 28 28 29 29 30 30 30 29 29 28 28 28 28 28 28 28 28 28 28 28 28
11 12 13 13 13 14 14 14 14 15 15 15 15 15 15 16 16 17 17 18 18 19 20 20 21 21 22 22 23 23 24 24 25 25 26 27 27 28 28 29 29 29 28 28 28 28 28 29 29 29 29 30 30 30 30 29 28 28 28 28 28 28 27 26 26 27 27 28 28
14 14 15 15 15 15 15 15 15 15 16 16 16 16 17 17 17 18 19 19 20 21 21 22 23 23 24 24 25 25 25 26 26 26 27 28 28 29 29 29 30 30 29 29 29 29 29 29 29 29 29 30 30 30 29 28 27 27 26 25 25 24 24 24 24 25 27 27 27
16 16 16 16 16 16 16 16 16 16 16 17 17 18 18 18 19 20 20 21 22 22 23 24 24 25 25 26 26 27 27 27 27 27 28 28 29 29 29 30 30 30 30 29 29 29 29 29 29 29 29 29 29 28 27 26 25 24 23 22 22 22 23 23 24 25 26 27 26
Wind_Direction
212 216 220 223 226 229 233 240 244 244 242 240 240 241 242 243 246 249 252 254 257 260 263 263 262 260 258 257 257 257 258 257 257 255 253 250 244 238 234 231 230 229 229 229 229 227 226 227 228 227 226 227 231 234 233 228 223 221 223 226 230 236 243 250 254 257 259 261 262
215 219 223 227 231 234 236 239 241 242 242 242 243 244 246 247 249 252 256 260 263 266 268 266 263 259 256 254 253 253 254 254 254 252 249 245 239 234 229 225 225 225 225 225 224 223 223 224 225 225 225 226 229 231 232 230 228 229 233 237 240 243 246 247 249 251 253 256 259
218 222 226 229 233 236 238 239 240 241 242 241 242 244 246 248 250 253 257 261 264 265 264 262 258 253 250 247 246 246 246 247 247 245 242 237 232 228 225 222 221 221 219 218 216 215 213 212 213 215 218 221 224 226 226 225 226 229 233 236 237 238 239 242 246 249 253 256 258
218 222 225 229 232 235 237 239 241 242 243 244 245 246 248 251 254 258 260 261 260 259 257 254 248 243 239 236 235 235 235 235 235 234 230 225 220 214 210 207 206 206 205 203 200 196 193 193 195 200 205 210 214 218 220 223 225 229 234 237 239 241 245 249 253 257 258 260 261
217 221 225 229 231 233 234 236 239 241 244 247 249 251 254 257 260 260 259 256 252 249 245 241 234 228 223 219 217 215 215 215 215 212 206 195 181 169 161 157 156 158 160 163 165 166 169 173 177 182 189 196 202 208 215 223 231 242 254 261 263 264 264 264 264 263 263 263 265
215 220 224 227 227 228 229 232 237 240 244 248 252 255 258 258 256 252 247 242 238 232 225 217 210 204 198 192 187 185 183 183 181 176 168 161 155 151 146 139 131 127 126 127 127 128 132 136 141 150 166 184 200 215 231 248 264 273 277 276 273 270 266 264 262 262 262 263 265
214 217 220 222 223 226 230 235 240 245 249 252 254 253 249 243 238 232 228 223 214 203 193 186 180 176 171 166 163 161 159 159 158 156 154 153 154 155 154 149 141 133 126 121 113 102 87 70 52 40 31 357 310 289 279 280 279 277 274 271 267 262 259 258 258 259 261 263 264
213 216 220 224 230 235 241 246 248 249 249 246 240 230 219 211 206 201 195 186 174 165 159 156 153 152 151 150 148 147 147 146 146 146 147 149 152 155 157 154 145 135 126 119 108 95 80 59 31 5 343 322 306 296 290 287 282 277 271 266 261 258 257 257 259 261 263 265 267
215 222 230 237 242 245 244 242 236 228 219 209 198 186 178 172 166 161 155 149 144 141 139 136 135 135 136 137 138 137 137 138 139 139 138 136 133 128 119 105 92 87 90 92 93 93 94 98 256 277 282 286 290 292 289 283 277 270 265 262 260 260 261 262 264 266 268 269 271
221 226 229 228 225 217 205 191 181 176 172 167 162 156 150 145 141 137 133 131 129 126 122 119 117 117 117 119 120 121 122 123 124 122 118 108 95 82 71 62 55 52 52 51 49 43 16 316 291 287 288 289 288 285 280 274 268 265 263 262 262 264 266 267 269 270 271 272 272
205 199 191 180 170 163 157 153 150 149 148 146 142 138 133 129 124 120 116 114 111 108 105 101 98 95 93 93 93 93 93 94 94 93 91 87 79 67 50 36 26 20 17 13 6 355 341 326 314 305 297 290 284 279 274 269 266 264 264 265 266 268 269 271 272 272 273 273 273
168 161 154 148 145 142 140 138 136 134 131 129 126 121 117 111 107 103 99 96 93 91 89 85 79 75 71 69 66 65 64 63 62 62 61 60 49 21 358 348 344 345 346 345 343 339 331 321 309 299 290 282 276 272 269 267 265 266 267 268 270 272 273 273 274 274 274 274 274
145 141 138 135 133 131 129 125 121 118 114 111 108 105 102 100 98 95 91 87 84 81 77 70 62 55 50 46 43 41 39 35 30 22 12 359 342 330 326 326 328 331 334 334 333 328 319 306 295 285 278 273 269 267 266 267 268 270 271 273 274 275 275 275 275 275 275 275 275
134 131 129 126 123 120 116 112 108 104 100 97 96 96 96 96 93 90 85 81 77 72 66 59 52 44 37 32 29 25 21 14 6 357 348 340 332 327 326 326 327 327 328 326 320 311 298 287 278 273 270 268 268 268 269 271 272 273 274 275 275 276 276 276 275 275 275 274 274
125 123 120 116 113 109 106 102 100 97 94 92 91 91 91 89 85 80 75 70 66 62 57 52 48 43 37 32 26 21 15 7 360 352 346 340 334 329 325 323 319 315 309 299 289 280 274 271 268 267 268 270 271 273 273 274 274 274 274 274 274 274 274 274 274 274 273 273 273
115 112 109 106 104 101 99 97 95 93 92 90 88 86 84 82 79 75 70 66 62 60 57 55 52 49 47 41 34 23 11 359 349 340 333 326 317 308 300 293 282 274 268 264 261 260 261 262 264 267 269 271 272 273 273 273 273 272 272 272 272 272 272 273 273 273 273 274 274
105 103 100 99 97 95 93 91 90 90 89 88 87 87 85 84 84 83 81 78 76 76 76 76 74 74 73 69 59 39 6 332 316 302 289 274 263 255 251 247 245 245 247 249 252 255 258 261 264 266 267 268 269 270 270 271 271 272 272 273 273 274 275 275 276 276 277 278 278
99 98 96 95 93 91 90 88 88 89 89 90 91 92 92 93 94 95 96 96 96 98 99 98 95 93 91 86 76 64 41 356 314 281 261 253 249 247 245 245 246 248 249 252 254 256 258 261 262 264 266 267 269 270 271 273 274 275 276 277 278 279 280 281 281 282 283 283 284
97 96 96 95 94 92 92 92 92 94 95 96 97 98 100 100 102 103 104 105 105 103 101 98 94 90 85 78 74 68 59 312 261 255 252 251 251 250 250 251 252 253 254 256 257 259 261 263 265 267 269 271 273 275 277 279 281 282 283 284 285 285 286 287 287 287 288 288 288
99 100 100 100 101 101 103 104 104 105 104 104 104 105 105 105 106 106 106 105 103 101 98 96 94 92 93 93 101 156 228 240 245 248 250 252 253 254 255 256 258 259 261 263 265 267 270 272 274 276 278 280 282 283 285 286 287 288 289 290 290 290 291 291 291 291 291 291 290
107 109 110 110 111 112 112 112 111 110 109 109 108 107 106 106 106 105 104 102 103 103 104 106 108 116 134 174 213 232 241 248 252 255 257 260 261 263 265 267 269 272 274 276 278 280 282 284 285 287 288 289 290 291 292 292 293 293 293 293 293 293 293 293 293 292 292 292 291
115 115 115 115 114 114 113 111 111 110 109 109 108 106 105 105 105 105 105 106 109 113 119 127 145 175 212 231 242 249 255 261 265 268 271 274 277 279 281 283 285 287 288 290 291 292 293 294 294 294 295 295 296 296 296 296 296 295 295 295 295 295 294 294 293 293 292 292 292
116 115 114 113 112 111 110 109 109 108 108 107 106 106 106 106 107 108 110 113 119 126 141 172 217 244 256 264 268 273 276 280 283 285 288 290 292 294 295 296 297 297 298 298 298 299 299 299 299 298 298 298 298 297 297 297 296 296 295 295 295 295 294 294 293 293 292 292 291
112 111 111 110 109 109 108 108 107 107 106 106 105 105 105 106 107 108 110 113 116 129 267 285 288 291 292 294 295 296 297 298 299 299 300 300 301 301 301 302 302 302 301 301 301 301 300 300 300 299 299 298 298 297 297 297 296 295 295 294 294 294 293 293 292 292 291 290 290
109 108 108 107 106 106 105 104 103 102 102 100 100 99 98 95 93 87 78 56 8 340 325 319 315 313 312 311 310 309 308 307 306 306 305 305 304 304 303 303 303 302 302 301 301 301 300 300 300 299 299 298 298 297 297 296 295 295 294 293 293 292 292 291 290 290 289 288 287
106 105 104 102 101 100 99 97 95 94 91 88 85 81 75 67 55 40 21 3 348 337 331 326 322 319 317 315 314 312 310 308 307 306 305 305 304 304 303 303 303 302 301 301 301 301 301 300 300 299 299 298 298 297 296 295 294 294 293 292 291 291 290 289 289 288 287 286 286
100 99 96 95 93 91 89 85 81 77 73 68 62 55 45 35 24 12 2 351 343 335 330 325 322 319 316 314 312 310 309 308 307 306 305 304 304 304 304 303 303 302 302 302 302 302 301 301 301 300 299 299 298 297 297 296 295 294 294 293 293 292 292 291 290 289 288 288 287
93 91 88 86 83 79 75 70 65 60 55 49 41 34 25 16 7 359 351 344 337 332 328 324 321 319 316 314 312 311 310 309 309 308 307 307 306 306 305 305 304 304 304 304 303 303 303 302 302 301 300 300 300 300 299 299 299 298 298 297 297 296 296 295 294 293 292 291 290
85 82 79 76 72 67 63 59 53 47 41 34 26 18 11 4 357 350 344 340 335 332 329 326 323 321 319 317 316 315 314 313 312 311 310 310 309 308 308 308 307 306 306 306 306 305 305 304 304 303 303 303 302 302 302 302 302 301 301 300 300 299 299 298 297 295 294 293 292
78 75 72 67 63 59 55 49 43 36 29 22 14 8 3 357 352 347 342 339 335 332 329 327 325 324 322 321 319 318 316 315 314 313 312 312 311 311 311 310 310 309 309 308 308 307 307 306 306 305 305 304 304 303 303 302 302 301 301 300 299 299 298 297 296 295 294 293 292
72 68 64 60 55 50 45 38 32 26 19 14 8 3 359 354 349 345 341 337 334 332 330 328 327 324 322 321 319 318 317 316 315 314 314 313 313 312 312 313 312 311 311 310 309 309 308 308 307 306 306 305 304 303 301 301 300 299 298 298 297 297 296 296 295 294 293 292 291
64 60 55 50 45 39 34 28 23 18 13 8 3 359 354 349 345 341 337 334 331 329 327 325 324 322 320 319 318 317 316 316 315 315 314 314 313 313 313 313 312 312 311 310 309 309 308 307 307 305 304 303 302 301 299 299 298 297 296 296 296 295 295 295 294 293 292 291 290
53 49 44 39 34 29 24 20 15 11 6 2 356 351 347 344 340 336 333 330 328 326 324 323 321 320 319 318 318 317 316 316 315 315 314 314 313 312 312 311 311 310 310 309 308 307 306 306 305 304 302 301 300 299 298 297 297 296 296 295 295 295 295 294 293 292 292 291 290
43 39 34 30 26 21 17 12 8 3 358 353 348 344 341 338 335 333 331 328 326 325 324 323 322 321 320 318 318 317 316 315 314 313 313 312 311 310 309 309 308 308 307 307 306 305 304 303 303 302 301 300 299 298 297 297 296 296 296 295 295 295 295 294 294 293 292 291 291
36 32 28 23 19 14 9 5 0 356 351 347 344 341 339 336 334 332 331 329 327 326 325 323 322 320 319 317 316 315 314 312 311 310 309 308 307 307 306 306 305 305 305 304 303 303 302 302 301 300 300 299 298 297 297 297 296 296 296 296 296 295 295 294 294 293 293 292 292
29 25 21 16 11 7 3 360 357 353 351 347 344 342 340 337 335 333 331 329 327 325 323 321 319 318 316 314 313 311 310 309 308 307 306 305 305 304 303 303 303 303 303 302 302 301 301 300 300 300 299 299 298 298 298 297 297 297 296 296 296 295 295 294 293 293 292 292 292
23 18 14 10 7 4 1 359 356 354 351 348 345 342 340 337 334 331 329 326 324 321 319 317 315 312 311 309 309 308 307 306 306 305 305 304 303 303 302 302 301 301 301 301 300 300 300 299 299 299 299 299 298 298 298 298 297 297 296 295 294 293 293 292 292 291 292 292 292
17 14 10 7 5 2 360 357 355 352 349 346 343 340 336 333 330 327 324 321 319 316 314 312 311 309 308 307 306 306 305 305 305 304 304 303 302 302 301 301 301 301 300 300 300 299 299 299 299 299 298 298 298 298 298 297 296 295 294 293 292 292 291 291 291 291 291 291 291
14 11 8 5 2 359 356 354 351 348 345 341 338 334 330 327 324 322 319 317 315 313 311 310 309 308 307 306 306 305 304 304 303 303 303 302 302 301 301 301 300 300 300 300 299 299 298 298 298 298 298 298 298 297 297 295 294 293 292 292 292 292 292 291 290 290 290 289 290
10 7 4 0 357 354 351 348 345 342 338 334 331 328 325 322 320 317 315 314 312 311 310 309 308 307 307 306 305 305 304 303 303 303 302 301 301 301 300 300 300 300 300 299 299 298 298 298 298 297 297 297 297 296 295 294 293 292 292 292 291 291 290 289 288 288 288 289 289
5 1 357 354 351 348 345 342 339 335 332 329 325 323 320 318 316 314 313 312 310 309 309 308 307 307 306 306 305 305 304 304 304 303 302 302 301 301 301 300 300 300 299 299 298 298 297 297 296 296 296 296 295 294 293 292 291 291 290 290 288 288 288 288 287 287 288 290 291